Volver al catálogo

KUIPER-00564

ActivoComunicacionesLEO
NORAD 69625·PAYLOAD·🇺🇸 United States

Lanzado Jun 17, 2026 desde Guiana Space Centre

Loading…

Próximos Pases (próximas 24 horas)

TLE

ActualizadoSource: CelesTrak SupGP

Época: Sep 14, 2026, 19:13 UTC

1 69625C 26140AK  26257.80079861  .00001693  00000+0  23987-3 0  2579
2 69625  51.8979 334.2736 0001957 106.2580 135.5611 14.76573921    19

Sigue KUIPER-00564 en tiempo real con AllMySat

Download on the App Store